Probability
3 1 0 1 3 3 1 0 0 0 0 0 0 1 2 2 1 2 6 15 22 26 31 37 39 37 34 33 30 27 22 19 19 18 16 15 14 13 12 11 10 9 7 4 2 1 1 0 0
3 2 1 1 2 1 0 0 0 0 0 0 1 2 4 4 4 5 10 16 22 28 34 39 41 40 37 35 33 31 26 21 19 17 16 15 14 13 12 11 10 9 8 5 3 3 2 1 0
3 2 1 0 0 0 0 0 0 0 0 0 1 3 4 5 6 9 15 21 25 31 36 40 43 44 41 39 37 34 29 24 20 18 17 16 16 15 14 13 11 10 9 7 6 5 3 1 0
2 2 1 0 0 0 0 0 0 0 0 1 2 3 4 6 9 15 23 28 31 34 36 40 44 45 42 41 38 33 28 25 22 19 18 17 17 16 15 14 13 12 10 9 8 7 4 2 1
1 1 0 0 0 0 0 0 0 0 0 1 2 4 6 10 16 24 31 34 34 33 33 37 42 42 38 36 33 28 25 23 21 20 19 17 16 16 15 14 13 13 12 11 10 7 5 3 2
0 0 0 0 0 0 0 0 0 0 0 1 2 4 7 14 22 28 32 33 30 27 29 34 38 37 33 30 27 24 21 20 20 20 19 17 15 14 14 13 13 13 13 12 11 7 4 3 3
0 0 0 0 0 0 0 0 0 0 0 1 2 4 8 15 22 27 31 31 26 23 25 30 33 32 30 28 24 21 19 18 19 19 18 16 14 13 14 13 12 12 13 12 10 6 4 3 3
0 0 0 0 0 0 0 0 0 0 1 1 3 5 8 14 20 27 31 31 26 23 24 26 28 29 29 26 22 18 16 15 16 17 16 15 13 13 14 13 11 11 11 11 8 5 3 3 3
0 0 0 0 0 0 0 0 0 1 2 3 4 6 10 15 21 27 29 29 26 24 23 24 25 26 26 22 17 14 12 12 12 14 14 13 13 13 13 12 10 9 8 7 6 4 3 2 1
0 0 0 0 0 0 0 0 1 2 3 4 6 8 11 17 21 24 26 25 24 22 21 22 22 21 20 17 12 10 9 9 9 10 11 11 11 12 11 10 8 6 5 4 4 3 2 1 0
0 0 0 0 0 0 0 0 1 2 3 4 5 9 12 16 19 21 22 22 21 18 17 17 17 16 15 14 11 8 7 7 7 8 8 9 10 10 9 7 5 4 3 3 3 2 1 0 0
0 0 0 0 0 0 0 0 0 1 3 3 4 7 11 12 14 16 17 19 19 16 13 13 14 13 13 12 10 7 5 5 5 6 7 7 8 8 6 4 3 3 3 3 3 1 0 0 0
0 0 0 0 0 0 0 0 0 1 2 3 4 7 9 10 10 11 13 15 17 15 13 11 12 12 12 11 9 5 3 3 4 6 6 6 7 6 4 3 3 3 3 3 2 1 0 0 0
0 0 0 0 0 0 0 0 0 1 2 3 4 6 8 9 9 8 9 12 14 14 12 11 10 11 11 10 7 5 3 3 4 5 5 5 5 4 3 3 3 3 3 3 2 1 0 0 0
0 0 0 0 0 0 0 0 0 1 2 3 3 5 7 8 8 7 7 8 9 10 9 10 10 10 10 9 7 5 4 3 2 2 3 3 4 3 3 3 3 3 3 3 3 1 1 0 0
0 0 0 0 0 0 0 0 0 1 2 3 3 4 5 7 7 6 6 5 4 4 6 9 10 10 10 9 8 6 5 3 1 0 1 2 3 3 3 3 3 3 3 3 3 2 1 0 0
0 0 0 0 0 0 0 0 0 1 2 3 3 3 4 6 6 5 4 4 2 1 3 7 9 10 10 9 8 6 3 1 0 0 0 1 3 3 3 3 3 3 3 3 3 2 1 0 0
0 0 0 0 0 0 0 0 0 1 2 3 3 3 4 5 5 4 3 3 1 1 2 5 8 9 9 9 8 6 2 0 0 0 0 1 2 3 3 3 3 3 3 3 3 1 0 0 0
0 0 0 0 0 0 0 0 0 0 1 1 3 3 3 3 3 3 3 2 1 1 1 3 5 7 8 9 8 6 3 1 0 0 0 0 1 2 3 3 3 3 3 3 2 1 0 0 0
0 0 0 0 0 0 0 0 0 0 0 1 2 3 2 1 2 3 3 1 0 1 2 2 3 5 7 7 6 5 3 1 0 0 0 0 0 1 3 3 3 3 3 3 1 0 0 0 0
0 0 0 0 0 0 0 0 0 0 0 0 1 2 1 1 2 3 2 1 0 1 2 3 3 4 5 5 5 4 3 2 1 1 1 0 0 1 2 3 3 3 3 2 1 0 0 0 0
0 0 0 0 0 0 0 0 0 0 0 0 0 0 0 1 2 2 1 0 0 1 2 3 4 5 5 4 3 3 3 3 3 2 2 1 0 1 2 3 3 3 3 2 1 0 0 0 0
0 0 0 0 0 0 0 0 0 0 0 0 0 0 0 0 1 2 1 0 0 0 1 3 4 5 5 3 3 3 3 3 3 3 3 2 1 0 1 2 2 2 2 1 0 0 0 0 0
0 0 0 0 0 0 0 0 0 0 0 0 0 0 0 0 1 1 1 0 0 0 1 2 3 4 4 3 3 3 3 3 3 3 3 3 2 1 0 1 1 1 1 0 0 0 0 0 0
0 0 0 0 0 0 0 0 0 0 0 0 0 0 0 0 0 0 0 0 0 0 1 2 3 3 3 3 3 3 3 3 3 3 3 3 2 1 0 0 0 0 0 0 0 0 0 0 0
0 0 0 0 0 0 0 0 0 0 0 0 0 0 0 0 0 0 0 0 0 0 1 2 3 3 2 2 3 3 3 3 3 3 3 3 1 0 0 0 0 0 0 0 0 0 0 0 0
0 0 0 0 0 0 0 0 0 0 0 0 0 0 0 0 0 0 0 0 0 0 0 1 3 3 2 2 2 3 3 3 3 3 3 3 1 0 0 0 0 0 0 0 0 0 0 0 0
0 0 0 0 0 0 0 0 0 0 0 0 0 0 0 0 0 0 0 0 0 0 0 1 2 3 2 1 1 2 3 3 3 3 3 3 2 0 0 0 0 0 0 0 0 0 0 0 0
0 0 0 0 0 0 0 0 0 0 0 0 0 0 0 0 0 0 0 0 0 0 0 1 2 3 2 1 1 1 2 2 2 2 2 2 1 0 0 0 0 0 0 0 0 0 0 0 0
0 0 0 0 0 0 0 0 0 0 0 0 0 0 0 0 0 0 0 0 0 0 0 0 1 2 1 0 0 1 1 1 1 1 1 1 0 0 0 0 0 0 0 0 0 0 0 0 0
Wind_Speed
4 2 2 3 4 1 6 6 4 3 3 3 1 4 5 4 4 4 2 8 11 12 11 13 14 14 14 14 14 13 13 13 13 13 13 12 12 12 12 11 11 10 10 9 9 9 9 9 9
1 1 3 3 4 4 6 6 6 7 5 2 0 2 3 1 1 5 4 8 13 12 11 11 14 14 15 15 14 14 13 13 13 13 12 12 12 11 11 11 10 10 9 9 8 8 8 8 8
0 1 3 3 4 8 7 6 9 6 4 2 0 1 3 2 3 3 5 11 11 10 10 11 14 15 15 15 15 14 14 13 13 13 12 12 12 12 11 10 10 10 9 9 8 8 8 7 7
1 2 2 3 8 7 7 4 3 3 2 1 3 2 1 0 3 4 10 12 12 9 9 11 15 15 15 15 14 14 14 14 13 13 12 12 12 11 11 10 10 10 9 9 8 8 8 7 7
2 2 3 4 8 7 6 5 2 3 3 1 3 3 1 3 4 9 11 12 12 10 8 10 14 15 15 15 14 14 13 13 13 13 12 12 12 11 11 10 10 9 9 9 8 8 8 7 7
2 2 4 7 8 7 6 5 2 3 3 1 3 3 1 1 7 9 10 10 11 10 9 10 14 14 14 14 14 13 13 13 13 13 12 12 12 11 11 10 10 9 9 8 8 7 7 7 7
3 3 5 6 6 7 7 4 4 4 4 4 5 5 2 2 5 9 9 9 9 9 8 7 8 10 12 12 13 13 12 12 12 12 12 11 11 10 10 10 9 8 8 8 7 7 6 6 6
3 3 4 5 6 7 5 3 4 5 5 2 4 7 6 5 6 9 9 9 8 7 7 7 7 7 7 8 11 11 11 11 11 11 10 10 9 9 10 9 8 8 8 7 6 6 6 6 6
3 3 7 7 6 5 3 3 3 2 2 1 1 3 6 10 11 11 9 8 7 7 6 6 6 7 7 6 8 9 9 9 9 8 9 8 4 4 5 6 7 7 7 6 6 6 6 6 6
4 6 9 5 4 3 2 3 3 1 1 1 2 3 7 10 12 12 11 10 9 9 7 6 6 7 6 6 5 4 4 4 4 4 5 4 3 3 4 6 7 7 6 6 6 7 6 5 3
5 7 5 5 4 3 3 2 1 4 2 4 6 9 9 9 10 11 10 10 10 9 8 6 6 6 6 5 4 3 2 3 3 4 5 4 3 3 3 2 3 3 4 3 4 4 3 3 2
4 5 4 4 3 3 2 2 1 2 4 4 8 12 11 9 9 11 11 9 8 9 8 7 6 6 5 5 4 4 3 3 3 3 4 4 3 3 2 2 2 2 1 2 2 2 3 3 3
6 4 4 5 5 3 2 2 2 3 1 3 5 8 9 8 7 7 8 8 8 9 8 7 7 6 5 5 4 4 3 3 3 3 3 4 4 3 3 2 2 2 2 2 2 2 3 3 3
4 4 5 5 5 3 2 4 2 4 2 4 6 6 7 7 7 6 7 7 8 8 8 7 7 7 6 4 4 4 3 3 3 3 3 4 4 4 3 3 2 2 2 2 2 2 2 2 2
2 3 5 5 5 3 0 4 4 4 3 4 5 5 5 5 6 7 8 8 8 7 7 7 8 7 7 5 5 4 3 3 3 3 3 4 4 4 4 3 2 2 2 2 2 3 3 2 3
1 2 4 5 5 3 3 7 5 4 5 4 4 4 4 4 5 5 6 6 6 7 7 7 7 7 7 5 5 4 3 3 3 3 3 4 4 5 4 3 2 2 2 2 2 2 2 2 2
2 5 6 4 5 3 4 5 4 3 5 5 5 4 3 3 3 3 5 6 6 7 7 6 6 7 6 6 4 4 4 3 3 2 3 3 4 5 4 3 2 3 3 2 2 2 2 2 2
5 5 5 6 4 3 4 5 4 2 5 5 4 3 3 4 4 4 4 5 5 5 6 6 6 5 6 5 4 3 3 2 2 2 3 4 4 5 4 3 3 3 3 2 2 3 2 1 1
4 4 5 5 3 4 5 6 4 2 3 4 3 3 3 4 3 3 3 4 4 5 5 6 6 5 5 4 4 3 3 3 2 2 3 4 4 5 4 4 3 3 3 3 3 3 3 2 1
5 4 4 3 2 3 4 6 4 3 3 5 6 5 5 2 2 2 3 3 4 5 5 5 5 5 5 4 3 2 3 3 2 1 2 3 4 4 4 5 4 3 3 3 3 3 2 1 1
6 7 6 4 2 1 2 3 4 3 2 3 4 4 5 6 5 4 3 3 4 4 5 5 5 5 4 4 3 3 3 2 2 2 2 2 4 4 4 5 4 4 3 3 3 3 3 2 1
6 6 5 4 3 2 4 3 5 3 3 3 4 3 3 4 4 4 4 3 4 4 3 4 4 5 5 5 5 6 5 4 4 3 3 2 3 3 4 4 4 4 3 3 3 3 2 3 1
4 3 3 4 3 1 2 3 5 2 4 5 5 4 4 4 5 5 4 4 3 3 3 3 4 4 4 4 6 6 4 3 3 3 4 3 2 3 4 4 4 4 3 3 3 3 2 2 2
1 2 3 2 2 4 5 5 5 5 8 6 5 4 3 3 4 4 3 3 2 2 2 3 4 3 4 4 5 5 5 5 5 4 4 3 2 2 3 4 4 4 3 3 3 3 3 2 2
2 4 1 1 1 5 4 4 6 4 5 7 7 5 3 3 4 4 3 3 3 3 3 3 4 3 3 4 4 5 6 6 7 6 6 5 3 2 4 4 4 3 3 3 3 3 2 2 2
4 5 4 4 5 2 2 5 5 3 2 3 4 4 3 3 3 4 4 4 4 3 3 3 4 3 3 4 4 4 5 4 3 5 4 5 4 3 4 4 4 4 3 3 3 2 2 2 2
4 4 3 3 1 1 3 3 5 2 1 2 3 2 2 2 3 3 3 3 3 4 3 3 4 3 3 3 3 3 4 4 4 4 3 3 3 3 4 4 4 3 3 3 3 2 2 2 2
2 3 3 3 3 2 2 3 3 2 3 2 3 3 3 2 3 2 2 2 2 2 2 2 2 3 3 3 3 3 3 4 4 4 4 4 4 4 4 4 4 3 3 3 3 2 2 2 1
1 1 2 2 2 3 2 5 2 4 4 4 4 4 4 3 3 3 2 2 2 2 2 2 2 1 2 2 2 3 3 3 3 3 4 4 4 4 4 4 4 4 3 3 3 3 3 3 2
1 2 3 3 2 2 2 5 3 1 1 3 3 1 1 2 2 2 2 2 2 2 1 1 1 1 2 3 2 2 2 3 3 3 3 4 4 4 4 4 4 4 3 3 3 3 3 3 3
Wind_Direction
288 355 74 66 73 106 225 234 227 226 223 221 194 137 140 153 162 176 144 142 135 145 149 146 143 141 138 136 133 129 127 125 122 122 121 120 118 115 113 111 107 104 100 97 93 89 86 85 83
28 59 72 78 135 199 239 232 229 227 213 194 148 112 94 103 107 116 129 143 139 143 145 145 142 141 138 136 133 130 127 124 123 123 122 122 120 118 115 112 109 105 101 97 95 89 85 87 84
347 147 115 121 184 201 220 223 223 243 244 203 163 50 123 148 138 142 146 139 134 138 143 143 142 141 138 136 133 131 129 125 122 121 121 120 118 116 113 111 108 104 101 97 92 87 84 89 85
96 84 87 173 222 226 218 225 218 232 264 170 138 63 24 360 165 148 137 134 131 134 140 143 143 141 138 136 133 131 130 127 124 122 121 120 119 116 112 108 106 104 100 96 91 89 84 84 84
83 119 165 224 230 238 236 246 238 219 220 182 127 114 335 332 110 123 132 134 135 136 139 142 142 140 138 135 134 132 131 130 127 124 122 121 120 117 112 109 105 102 100 98 94 90 86 82 79
127 130 178 218 229 240 247 237 246 238 235 194 112 113 204 181 117 128 131 133 136 137 136 139 140 138 137 135 134 133 132 132 130 127 124 122 119 117 114 110 106 102 100 97 96 91 88 83 77
164 167 201 206 222 239 241 227 212 223 229 216 146 125 160 179 139 131 127 127 128 132 131 132 137 135 134 133 132 132 132 132 130 128 125 121 118 117 115 110 106 103 100 96 95 92 87 81 72
168 166 211 207 211 234 234 219 213 201 220 181 131 146 177 190 145 128 122 121 123 125 129 130 130 129 130 130 128 129 131 130 129 125 121 117 115 114 112 110 108 104 100 98 93 91 84 75 66
155 190 214 207 202 231 231 219 251 217 142 75 108 177 172 146 133 125 124 124 128 130 131 131 130 130 128 129 129 126 125 125 124 122 117 111 107 108 107 108 106 103 98 92 87 82 74 65 57
179 209 220 215 207 234 265 222 217 123 109 47 52 77 123 139 141 142 147 150 150 150 147 141 137 136 133 128 120 119 118 120 120 121 119 116 111 104 100 94 95 94 87 80 75 68 59 53 45
192 214 221 250 263 278 298 292 240 139 192 193 165 153 148 150 153 154 158 160 159 156 151 149 145 140 137 131 131 121 119 119 117 123 122 116 104 97 88 85 77 76 74 64 58 56 52 48 44
218 240 230 253 292 294 273 293 324 185 210 193 164 155 153 160 165 166 164 163 158 155 156 153 149 142 143 139 135 133 131 129 129 130 129 124 117 109 108 100 93 87 82 77 69 69 61 55 49
235 239 240 263 282 281 293 281 257 267 246 132 137 150 157 164 171 169 163 158 157 159 158 156 152 147 146 139 140 136 139 139 140 133 131 132 130 129 121 111 102 93 89 90 84 76 70 61 51
230 242 249 250 262 277 264 275 231 252 126 128 147 165 169 168 166 155 154 157 161 163 162 156 155 150 143 143 144 143 142 138 134 134 136 134 132 134 128 118 110 96 96 97 99 91 81 66 58
234 239 265 247 237 245 196 281 243 230 148 157 174 177 179 176 164 164 167 162 163 161 158 157 157 151 147 146 146 141 141 135 135 138 139 135 133 134 130 125 119 111 100 93 85 76 70 58 49
186 207 239 244 213 217 170 249 257 212 162 175 185 179 179 180 174 169 160 156 153 151 153 160 157 151 150 147 144 142 138 134 139 140 141 139 134 132 126 124 123 115 101 96 94 85 74 55 46
178 210 220 247 209 176 176 243 255 212 170 180 182 179 184 173 164 163 157 154 153 154 153 153 148 151 149 141 136 135 132 134 141 138 141 145 138 132 128 127 124 113 99 91 96 80 86 75 41
204 207 209 218 218 173 204 245 264 207 176 185 183 181 192 182 187 168 155 153 151 150 148 145 140 142 138 130 123 118 116 125 134 146 152 147 143 135 127 123 120 114 104 91 92 95 75 82 67
194 198 220 232 234 192 218 241 249 222 192 187 185 182 194 205 185 145 137 139 137 135 138 145 143 144 140 142 146 148 154 153 157 163 156 148 146 140 134 127 123 120 121 124 121 111 92 54 50
212 210 230 244 226 202 216 240 237 225 211 195 185 187 197 191 138 137 133 132 141 148 151 153 156 157 157 162 164 161 149 155 159 160 153 151 149 149 146 140 136 133 127 120 123 119 109 59 45
232 210 215 234 272 218 157 257 237 244 218 202 197 187 187 178 178 172 164 161 152 159 166 169 169 163 161 152 130 120 101 102 123 155 172 171 158 151 149 147 142 143 140 144 152 144 136 143 11
236 223 221 222 174 220 176 227 240 218 220 208 210 195 194 186 176 169 174 174 173 175 168 165 165 162 158 153 156 163 162 169 182 174 173 168 159 154 156 153 149 148 144 146 156 148 151 143 149
232 246 234 219 184 184 178 186 261 200 215 217 211 201 195 186 174 170 180 182 168 159 162 161 160 158 158 161 168 167 163 163 153 149 154 161 165 165 162 156 151 151 149 151 146 142 145 149 156
214 45 34 50 125 214 202 179 253 216 213 207 203 203 192 184 174 172 169 146 135 133 147 150 156 164 164 163 169 167 165 160 156 161 170 174 169 166 167 162 155 152 151 154 151 149 143 139 142
114 112 80 22 218 235 187 181 244 241 217 200 194 198 197 176 172 164 152 147 142 145 156 160 160 168 170 166 176 178 176 172 175 176 178 173 172 176 181 169 162 157 157 152 146 147 151 147 145
198 163 168 185 203 261 172 212 253 264 222 174 170 175 174 170 171 169 167 165 164 165 165 163 175 180 179 177 183 181 175 172 176 181 180 180 182 182 172 169 165 159 156 153 148 146 157 146 150
171 197 196 137 125 134 235 275 297 330 51 126 148 149 174 190 181 172 159 159 165 173 178 177 182 183 187 187 179 174 173 170 173 177 174 172 169 167 161 160 158 161 160 157 150 152 161 150 157
165 151 113 134 155 206 241 240 243 247 216 183 180 191 200 197 180 170 163 166 168 171 174 164 168 181 181 180 181 177 178 173 171 169 171 174 171 165 159 160 159 159 159 153 147 150 157 150 160
125 138 152 150 161 165 203 256 245 217 197 187 201 207 194 195 185 176 174 167 156 129 125 145 156 153 168 175 178 167 169 164 165 171 177 176 172 165 165 166 163 161 163 162 158 165 161 161 167
155 171 154 155 207 177 177 269 324 305 227 192 200 212 185 173 168 165 156 141 132 131 132 139 162 177 186 175 161 160 153 149 159 170 174 168 169 169 168 163 163 168 169 168 171 174 170 173 183